Starlink 4809

operational
NORAD ID: 53857 Int'l Des: 2022-114 Owner: SPXS Country: US Constellation: starlink
LEOCIRCULAR

About Starlink 4809

Description loading...

Live Position

Loading 3D Globe...

Upcoming Passes

Altitude History

Altitude vs Time

uPlot chart will show altitude changes over time

Two-Line Element Set

1 53857U 22114AR 26062.10581698 .00000565 00000-0 53614-4 0 9991
2 53857 53.2194 323.2553 0001596 80.6716 279.4456 15.08832625191981
Epoch: Mar 3, 2026 • Age: 8 hours

Current Status

Altitude 541.5 km
Velocity 7.60 km/s
Sub-Earth Point 33.65°N, 167.18°W
Launch Date Sep 19, 2022
Age 3.4 years
Type internet

Technical Details

Classification Payload
Mass 305.00 kg
Dry Mass 290.00 kg
Total Mass 305.00 kg
Length 0.20 m
Diameter 2.80 m
Span 9.00 m
Shape Box + pan
Manufacturer SPXS
Bus Type Starlink
Phase Status In Orbit
Owner/State SPXS/US

Large Constellations

Loading constellations...